• In Romania
  • List of Countries
  • For 7 days
  • Water Temperature
  • Satellite Maps
  • Weather Map
  • Weather Widgets
  • user-avatar
    Login

    Hourly Weather Yelsk

    Today, 20 October, Friday

    Time Temperature Precipitation Wind Pressure Humidity
    00:00 +10°C° 0 mm 3 mps 749 mmHg 79%
    01:00 +10°C° 0 mm 3 mps 749 mmHg 80%
    02:00 +10°C° 0 mm 3 mps 749 mmHg 80%
    03:00 +9°C° 0 mm 3 mps 749 mmHg 79%
    04:00 +8°C° 0 mm 3 mps 749 mmHg 79%
    05:00 +8°C° 0 mm 3 mps 750 mmHg 79%
    06:00 +8°C° 0 mm 3 mps 750 mmHg 76%
    07:00 +8°C° 0 mm 3 mps 750 mmHg 74%
    08:00 +8°C° 0 mm 3 mps 750 mmHg 71%
    09:00 +9°C° 0 mm 3 mps 750 mmHg 66%
    10:00 +10°C° 0 mm 3 mps 751 mmHg 62%
    11:00 +12°C° 0 mm 3 mps 751 mmHg 57%
    12:00 +12°C° 0 mm 3 mps 751 mmHg 55%
    13:00 +13°C° 0 mm 3 mps 751 mmHg 53%
    14:00 +13°C° 0 mm 3 mps 750 mmHg 51%
    15:00 +13°C° 0 mm 2 mps 750 mmHg 55%
    16:00 +12°C° 0 mm 2 mps 750 mmHg 59%
    17:00 +10°C° 0 mm 2 mps 750 mmHg 62%
    18:00 +9°C° 0 mm 2 mps 750 mmHg 64%
    19:00 +8°C° 0 mm 2 mps 750 mmHg 66%
    20:00 +7°C° 0 mm 2 mps 751 mmHg 68%
    21:00 +7°C° 0 mm 2 mps 751 mmHg 69%
    22:00 +7°C° 0 mm 2 mps 751 mmHg 70%
    23:00 +6°C° 0 mm 2 mps 751 mmHg 71%

    Tomorrow, 21 October, Saturday

    Time Temperature Precipitation Wind Pressure Humidity
    00:00 +6°C° 0 mm 2 mps 751 mmHg 73%
    01:00 +6°C° 0 mm 2 mps 751 mmHg 74%
    02:00 +5°C° 0 mm 2 mps 751 mmHg 75%
    03:00 +5°C° 0 mm 2 mps 750 mmHg 76%
    04:00 +5°C° 0 mm 2 mps 750 mmHg 76%
    05:00 +5°C° 0 mm 2 mps 750 mmHg 77%
    06:00 +5°C° 0 mm 2 mps 750 mmHg 76%
    07:00 +5°C° 0 mm 2 mps 750 mmHg 74%
    08:00 +6°C° 0 mm 2 mps 750 mmHg 73%
    09:00 +7°C° 0 mm 2 mps 750 mmHg 69%
    10:00 +8°C° 0 mm 2 mps 750 mmHg 66%
    11:00 +9°C° 0 mm 2 mps 749 mmHg 63%
    12:00 +9°C° 0 mm 2 mps 749 mmHg 64%
    13:00 +9°C° 0 mm 2 mps 749 mmHg 64%
    14:00 +9°C° 0 mm 2 mps 748 mmHg 65%
    15:00 +9°C° 0.1 mm 3 mps 748 mmHg 67%
    16:00 +8°C° 0.1 mm 3 mps 748 mmHg 70%
    17:00 +7°C° 0.1 mm 3 mps 748 mmHg 72%
    18:00 +7°C° 0.2 mm 3 mps 748 mmHg 73%
    19:00 +7°C° 0.2 mm 3 mps 748 mmHg 73%
    20:00 +7°C° 0.2 mm 3 mps 748 mmHg 74%
    21:00 +5°C° 0.3 mm 4 mps 748 mmHg 76%
    22:00 +5°C° 0.3 mm 4 mps 748 mmHg 77%
    23:00 +5°C° 0.3 mm 4 mps 748 mmHg 78%

    Day after tomorrow, 22 October, Sunday

    Time Temperature Precipitation Wind Pressure Humidity
    00:00 +4°C° 0 mm 3 mps 748 mmHg 80%
    01:00 +4°C° 0 mm 3 mps 749 mmHg 82%
    02:00 +4°C° 0 mm 3 mps 749 mmHg 84%
    03:00 +3°C° 0 mm 3 mps 749 mmHg 85%
    04:00 +4°C° 0 mm 2 mps 749 mmHg 87%
    05:00 +3°C° 0 mm 2 mps 749 mmHg 88%
    06:00 +3°C° 0 mm 2 mps 749 mmHg 87%
    07:00 +2°C° 0 mm 3 mps 749 mmHg 86%
    08:00 +2°C° 0 mm 3 mps 750 mmHg 84%
    09:00 +4°C° 0 mm 3 mps 750 mmHg 77%
    10:00 +5°C° 0 mm 3 mps 750 mmHg 70%
    11:00 +8°C° 0 mm 3 mps 750 mmHg 63%
    12:00 +8°C° 0 mm 2 mps 750 mmHg 60%
    13:00 +9°C° 0 mm 2 mps 750 mmHg 57%
    14:00 +9°C° 0 mm 2 mps 750 mmHg 55%
    15:00 +8°C° 0 mm 2 mps 750 mmHg 59%
    16:00 +7°C° 0 mm 2 mps 750 mmHg 64%
    17:00 +6°C° 0 mm 2 mps 749 mmHg 69%
    18:00 +5°C° 0 mm 2 mps 749 mmHg 71%
    19:00 +4°C° 0 mm 2 mps 750 mmHg 73%
    20:00 +4°C° 0 mm 2 mps 750 mmHg 75%
    21:00 +3°C° 0 mm 2 mps 750 mmHg 76%
    22:00 +3°C° 0 mm 2 mps 749 mmHg 77%
    23:00 +3°C° 0 mm 2 mps 749 mmHg 78%

    23 October, Monday

    Time Temperature Precipitation Wind Pressure Humidity
    00:00 +3°C° 0 mm 2 mps 749 mmHg 78%
    01:00 +2°C° 0 mm 2 mps 749 mmHg 78%
    02:00 +2°C° 0 mm 2 mps 749 mmHg 79%
    03:00 +1°C° 0 mm 3 mps 749 mmHg 77%
    04:00 +2°C° 0 mm 3 mps 748 mmHg 76%
    05:00 +2°C° 0 mm 3 mps 748 mmHg 74%
    06:00 +2°C° 0 mm 3 mps 748 mmHg 73%
    07:00 +3°C° 0 mm 3 mps 748 mmHg 71%
    08:00 +3°C° 0 mm 3 mps 748 mmHg 69%
    09:00 +4°C° 0 mm 4 mps 748 mmHg 67%
    10:00 +4°C° 0 mm 4 mps 748 mmHg 65%
    11:00 +5°C° 0 mm 4 mps 747 mmHg 63%
    12:00 +6°C° 0 mm 4 mps 747 mmHg 62%
    13:00 +7°C° 0 mm 4 mps 747 mmHg 60%
    14:00 +7°C° 0 mm 4 mps 747 mmHg 58%
    15:00 +7°C° 0 mm 4 mps 747 mmHg 59%
    16:00 +7°C° 0 mm 4 mps 747 mmHg 60%
    17:00 +7°C° 0 mm 4 mps 747 mmHg 61%
    18:00 +6°C° 0 mm 4 mps 747 mmHg 62%
    19:00 +6°C° 0 mm 4 mps 747 mmHg 63%
    20:00 +6°C° 0 mm 5 mps 747 mmHg 64%
    21:00 +6°C° 0.1 mm 4 mps 747 mmHg 65%
    22:00 +5°C° 0.1 mm 4 mps 747 mmHg 65%
    23:00 +5°C° 0.1 mm 4 mps 747 mmHg 66%

    24 October, Tuesday

    Time Temperature Precipitation Wind Pressure Humidity
    00:00 +3°C° 0.3 mm 5 mps 747 mmHg 67%
    01:00 +3°C° 0.3 mm 5 mps 748 mmHg 68%
    02:00 +3°C° 0.3 mm 5 mps 748 mmHg 69%
    03:00 +3°C° 0.5 mm 5 mps 748 mmHg 70%
    04:00 +2°C° 0.5 mm 5 mps 748 mmHg 71%
    05:00 +2°C° 0.5 mm 5 mps 748 mmHg 71%
    06:00 +2°C° 0.6 mm 5 mps 748 mmHg 71%
    07:00 +2°C° 0.6 mm 5 mps 749 mmHg 72%
    08:00 +2°C° 0.6 mm 5 mps 749 mmHg 72%
    09:00 +1°C° 0.6 mm 5 mps 750 mmHg 73%
    10:00 +1°C° 0.6 mm 5 mps 750 mmHg 73%
    11:00 +1°C° 0.6 mm 5 mps 751 mmHg 74%
    12:00 +1°C° 0.4 mm 5 mps 751 mmHg 74%
    13:00 +1°C° 0.4 mm 5 mps 751 mmHg 75%
    14:00 +1°C° 0.4 mm 5 mps 751 mmHg 75%
    15:00 +1°C° 0.3 mm 5 mps 752 mmHg 75%
    16:00 +1°C° 0.3 mm 5 mps 752 mmHg 75%
    17:00 +1°C° 0.3 mm 4 mps 753 mmHg 75%
    18:00 +1°C° 0.2 mm 4 mps 753 mmHg 75%
    19:00 +1°C° 0.2 mm 4 mps 753 mmHg 75%
    20:00 +1°C° 0.2 mm 4 mps 754 mmHg 74%
    21:00 +1°C° 0.2 mm 4 mps 754 mmHg 75%
    22:00 +1°C° 0.2 mm 4 mps 754 mmHg 76%
    23:00 +1°C° 0.2 mm 4 mps 755 mmHg 77%

    25 October, Wednesday

    Time Temperature Precipitation Wind Pressure Humidity
    00:00 +1°C° 0.3 mm 4 mps 755 mmHg 78%
    01:00 +2°C° 0.3 mm 3 mps 755 mmHg 79%
    02:00 +2°C° 0.3 mm 3 mps 756 mmHg 80%
    03:00 +2°C° 0.2 mm 3 mps 756 mmHg 80%
    04:00 +2°C° 0.2 mm 3 mps 756 mmHg 81%
    05:00 +1°C° 0.2 mm 3 mps 756 mmHg 81%
    06:00 +2°C° 0.1 mm 3 mps 756 mmHg 81%
    07:00 +2°C° 0.1 mm 3 mps 756 mmHg 80%
    08:00 +2°C° 0.1 mm 3 mps 757 mmHg 80%
    09:00 +2°C° 0 mm 3 mps 757 mmHg 77%
    10:00 +3°C° 0 mm 3 mps 757 mmHg 75%
    11:00 +3°C° 0 mm 3 mps 757 mmHg 73%
    12:00 +3°C° 0 mm 3 mps 757 mmHg 72%
    13:00 +4°C° 0 mm 3 mps 757 mmHg 71%
    14:00 +4°C° 0 mm 3 mps 757 mmHg 70%
    15:00 +5°C° 0 mm 2 mps 757 mmHg 73%
    16:00 +4°C° 0 mm 2 mps 757 mmHg 77%
    17:00 +4°C° 0 mm 2 mps 757 mmHg 80%
    18:00 +3°C° 0 mm 2 mps 757 mmHg 82%
    19:00 +2°C° 0 mm 2 mps 757 mmHg 84%
    20:00 +3°C° 0 mm 1 mps 757 mmHg 85%
    21:00 +3°C° 0 mm 1 mps 757 mmHg 85%
    22:00 +2°C° 0 mm 1 mps 757 mmHg 85%
    23:00 +2°C° 0 mm 1 mps 757 mmHg 84%
    Show more